Weather in Verhnyaya Pyshma

Russia / Sverdlovsk Oblast     56°58′01″N   60°34′45″E
temp.,
°C
wind,
m/s
gust,
m/s
humid.,
%
clouds,
%
prec.,
mm/h
press.,
hPa
HPBL,
m
4 march, thu
thu423:00−6sw3895100 0.0 998200
02:00−7sw2795100 0.0 997186
05:00−8sw2795100 0.0 996186
08:00−9sw3994100 0.0 996213
11:00−5w5886100 0.0 996769
14:00−5w5880100 0.1 9961124
17:00−5wsw4882100 0.2 9971107
20:00−10sw389284 0.0 997192
5 march, fri
fri523:00−10s3119275 0.0 996350
02:00−7s41294100 0.1 992765
05:00−5ssw41190100 0.8 990460
08:00−6wsw51292100 0.5 991873
11:00−5wsw7138497 0.6 993935
14:00−4wsw71282100 0.1 995987
17:00−5w61182100 0.1 998963
20:00−9w4129081 0.0 1000564
6 march, sat
sat623:00−11w3119270 0.0 1003393
02:00−13w4129093 0.0 1006517
05:00−15w4119379 0.0 1008283
08:00−15wsw4119267 0.0 1008343
11:00−10wsw5118564 0.0 1008711
14:00−8wsw61079100 0.0 10081301
17:00−7wsw5981100 0.1 10081294
20:00−11wsw249599 0.1 100892
7 march, sun
sun723:00−15wnw129790 0.1 100920
02:00−18wnw119734 0.0 100920
05:00−19w119617 0.0 100920
08:00−20w11975 0.0 100920
11:00−14w248815 0.0 1008332
14:00−11w358163 0.0 1008826
17:00−12w368382 0.1 1009885
20:00−17wsw3794100 0.0 1010151
8 march, mon
mon823:00−20wsw239751 0.0 101267
02:00−21wsw259612 0.0 1012107
05:00−23ssw239615 0.0 101126
08:00−21sse379572 0.0 1009165
11:00−14sse5109386 0.4 1006425
14:00−10sse4890100 0.4 1004568
17:00−7ssw3894100 1.3 1003650
20:00−10wsw5148468 0.7 1004739